Regional Weather Roundup
Issued by NWS Cleveland, OH

Home | Current Version | Previous Version | Text Only | Print | Product List | Glossary Off
Versions: 1 2 3 4 5 6 7 8 9 10 11 12 13 14 15 16 17 18 19 20 21 22 23 24 25 26 27 28 29 30 31 32 33 34 35 36 37 38 39 40 41 42 43 44 45 46 47 48 49 50

000
ASUS41 KCLE 132100
RWRCLE
OHIO REGIONAL WEATHER ROUNDUP
NATIONAL WEATHER SERVICE WILMINGTON, OH
500 PM EDT SUN JUL 13 2014

NOTE: "FAIR" INDICATES FEW OR NO CLOUDS BELOW 12,000 FEET WITH NO
SIGNIFICANT WEATHER AND/OR OBSTRUCTIONS TO VISIBILITY.

OHZ001>008-015>018-024>027-034-035-043-044-132200-
   NORTHWEST OHIO

CITY           SKY/WX    TMP DP  RH WIND       PRES   REMARKS
DEFIANCE       MOSUNNY   84  64  50 VRB6      29.89F
FINDLAY        PTSUNNY   84  67  56 W12       29.88F
TOLEDO EXPRESS MOSUNNY   85  62  46 W16       29.87F
TOLEDO METCALF MOSUNNY   86  63  45 W13       29.87F
LIMA           PTSUNNY   85  67  54 W13       29.91S
$$

OHZ009>014-019>023-028>033-038-089-132200-
   NORTHEAST OHIO

CITY           SKY/WX    TMP DP  RH WIND       PRES   REMARKS
CLE-HOPKINS    PTSUNNY   82  68  62 NW15      29.89F
CLE-LAKEFRONT  SUNNY     78  70  76 W7        29.86S
CUY CO. ARPT   PTSUNNY   81  70  69 NW12G21   29.89S
LORAIN-ELYRIA  SUNNY     84  69  60 N8        29.88S
ASHTABULA      MOSUNNY   80  67  64 W10       29.89R
AKRON-CANTON   PTSUNNY   80  68  66 NW10      29.88F
WOOSTER        NOT AVBL
MANSFIELD      MOSUNNY   84  69  60 W9G16     29.91S
YOUNGSTOWN     PTSUNNY   77  70  79 W7        29.88S
$$

OHZ042-051>053-060>062-070>072-077>081-132200-
  SOUTHWEST OHIO

CITY           SKY/WX    TMP DP  RH WIND       PRES   REMARKS
CINC-COVINGTON CLOUDY    76  71  85 S7        29.94R
CINC-LUNKEN    TSTM      79  73  82 W14       29.94R
HAMILTON       MOSUNNY   90  72  55 NW12G17   29.91F THUNDER HX  97
DAYTON         NOT AVBL
WRIGHT-PAT AFB NOT AVBL
DAYTON GENERAL MOSUNNY   87  70  56 NW9       29.91S HX  92
WILMINGTON     LGT RAIN  81  70  69 SW8       29.93S
$$

OHZ036-037-039>041-045>050-054>059-063>069-073>076-082>088-132200-
  CENTRAL AND SOUTHEAST OHIO

CITY           SKY/WX    TMP DP  RH WIND       PRES   REMARKS
COLUMBUS       PTSUNNY   87  70  56 NW16      29.89F HX  92
OSU AIRPORT    PTSUNNY   86  69  56 NW13      29.90F HX  90
BOLTON FIELD   NOT AVBL
RICKENBACK AFB NOT AVBL
NEWARK         PTSUNNY   84  74  71 SW6       29.89F HX  91
MARION         PTSUNNY   86  68  54 NW13      29.90F
LANCASTER      PTSUNNY   81  71  71 SW8       29.92R
ZANESVILLE     MOSUNNY   80  70  71 SW5       29.91F
NEW PHILLY     PTSUNNY   83  73  72 W8        29.90F
$$



USA.gov is the U.S. government's official web portal to all federal, state and local government web resources and services.